This demonstration page uses our WeatherBlox Daily Observations layout. Learn more.

Left ArrowRight Arrow

Hourly Observations for May 13, 2019

Temp ( °F °C ) Dew Point ( °F °C ) Humidity (%) Winds ( mph kmh ) Pressure ( in mb ) Visibility ( mi km ) Precip ( " mm )
12:16 am 00:16 Cloudy 46 8 46 8 100 100 W 6 9 29.82 1010 7 11.26538 N/A
12:35 am 00:35 Cloudy 46 8 46 8 100 100 W 7 11 29.81 1009 10 16.0934 N/A
12:55 am 00:55 Cloudy 46 8 46 8 100 100 W 7 11 29.82 1010 10 16.0934 N/A
1:15 am 01:15 Cloudy 46 8 46 8 100 100 W 7 11 29.81 1009 10 16.0934 N/A
1:35 am 01:35 Cloudy 46 8 46 8 100 100 W 10 17 29.81 1009 7 11.26538 N/A
1:55 am 01:55 Cloudy 46 8 46 8 100 100 W 8 13 29.81 1009 3 4.82802 N/A
2:15 am 02:15 Cloudy 46 8 46 8 100 100 W 8 13 29.81 1009 3 4.82802 N/A
2:35 am 02:35 Cloudy 46 8 46 8 100 100 W 7 11 29.8 1009 3 4.82802 N/A
2:55 am 02:55 Cloudy 46 8 46 8 100 100 WNW 8 13 29.8 1009 7 11.26538 N/A
3:15 am 03:15 Cloudy 46 8 46 8 100 100 WNW 10 17 29.8 1009 5 8.0467 N/A
3:36 am 03:36 Cloudy 46 8 46 8 100 100 WNW 12 19 29.8 1009 5 8.0467 N/A
3:55 am 03:55 Cloudy 46 8 46 8 100 100 W 12 19 29.8 1009 5 8.0467 N/A
4:15 am 04:15 Cloudy 46 8 46 8 100 100 W 10 17 29.81 1009 5 8.0467 N/A
4:35 am 04:35 Cloudy 45 7 45 7 100 100 W 10 17 29.81 1009 4 6.43736 N/A
4:55 am 04:55 Cloudy 45 7 45 7 100 100 W 14 22 29.81 1009 4 6.43736 N/A
5:15 am 05:15 Cloudy 45 7 45 7 100 100 WNW 13 20 29.82 1010 4 6.43736 N/A
5:35 am 05:35 Cloudy 45 7 45 7 100 100 WNW 10 17 29.82 1010 5 8.0467 N/A
5:55 am 05:55 Cloudy 45 7 45 7 100 100 WNW 9 15 29.83 1010 5 8.0467 N/A
6:15 am 06:15 Cloudy 45 7 45 7 100 100 WNW 9 15 29.84 1011 5 8.0467 N/A
6:36 am 06:36 Cloudy 45 7 45 7 100 100 WNW 9 15 29.84 1011 5 8.0467 N/A
6:55 am 06:55 Cloudy 45 7 45 7 100 100 WNW 12 19 29.85 1011 3 4.82802 N/A
7:16 am 07:16 Cloudy 43 6 43 6 100 100 WNW 8 13 29.86 1011 3 4.82802 N/A
7:35 am 07:35 Cloudy 45 7 45 7 100 100 WNW 8 13 29.86 1011 2.5 4.02335 N/A
7:55 am 07:55 Cloudy 45 7 45 7 100 100 WNW 9 15 29.87 1012 4 6.43736 N/A
8:15 am 08:15 Cloudy 45 7 45 7 100 100 WNW 12 19 29.88 1012 4 6.43736 N/A
8:35 am 08:35 Cloudy 45 7 45 7 100 100 WNW 12 19 29.89 1012 5 8.0467 N/A
8:55 am 08:55 Cloudy 45 7 45 7 100 100 NW 10 17 29.9 1013 7 11.26538 N/A
9:15 am 09:15 Cloudy 45 7 45 7 100 100 WNW 9 15 29.9 1013 7 11.26538 N/A
9:55 am 09:55 Cloudy 45 7 45 7 100 100 WNW 12 19 29.91 1013 5 8.0467 N/A
10:15 am 10:15 Cloudy 45 7 45 7 100 100 WNW 10 17 29.91 1013 4 6.43736 N/A
10:35 am 10:35 Cloudy 45 7 45 7 100 100 WNW 12 19 29.92 1013 5 8.0467 N/A
10:55 am 10:55 Cloudy 46 8 46 8 100 100 WNW 13 20 29.92 1013 5 8.0467 N/A
11:15 am 11:15 Cloudy 46 8 46 8 100 100 WNW 10 17 29.93 1013 5 8.0467 N/A
11:35 am 11:35 Cloudy 46 8 46 8 100 100 WNW 14 22 29.94 1014 4 6.43736 N/A
11:55 am 11:55 Cloudy 46 8 46 8 100 100 NW 10 17 29.94 1014 7 11.26538 N/A
12:15 pm 12:15 Cloudy 48 9 48 9 100 100 WNW 13 20 29.93 1014 7 11.26538 N/A
12:35 pm 12:35 Cloudy 50 10 48 9 94 94 WNW 13 20 29.93 1014 7 11.26538 N/A
12:55 pm 12:55 Cloudy 50 10 48 9 94 94 WNW 13 20 29.93 1014 10 16.0934 N/A
1:15 pm 13:15 Cloudy 52 11 50 10 94 94 WNW 12 19 29.93 1013 10 16.0934 N/A
1:35 pm 13:35 Cloudy 50 10 48 9 94 94 NW 10 17 29.94 1014 10 16.0934 N/A
1:55 pm 13:55 Cloudy 50 10 46 8 88 88 NW 9 15 29.94 1014 10 16.0934 N/A
2:15 pm 14:15 Cloudy 52 11 48 9 88 88 NW 8 13 29.94 1014 10 16.0934 N/A
2:35 pm 14:35 Cloudy 50 10 48 9 94 94 NW 10 17 29.94 1014 10 16.0934 N/A
2:56 pm 14:56 Cloudy 52 11 48 9 88 88 NW 12 19 29.94 1014 10 16.0934 N/A
3:15 pm 15:15 Cloudy 54 12 48 9 82 82 NW 10 17 29.93 1014 10 16.0934 N/A
3:35 pm 15:35 Mostly Cloudy 54 12 50 10 88 88 NW 10 17 29.93 1014 10 16.0934 N/A
3:55 pm 15:55 Cloudy 54 12 48 9 82 82 WNW 12 19 29.93 1014 10 16.0934 N/A
4:15 pm 16:15 Cloudy 54 12 48 9 82 82 WNW 9 15 29.93 1014 10 16.0934 N/A
4:36 pm 16:36 Cloudy 52 11 48 9 88 88 NW 9 15 29.94 1014 10 16.0934 N/A
4:55 pm 16:55 Cloudy 54 12 48 9 82 82 NW 8 13 29.93 1014 10 16.0934 N/A
5:15 pm 17:15 Cloudy 54 12 48 9 82 82 NNW 7 11 29.94 1014 10 16.0934 N/A
5:35 pm 17:35 Cloudy 55 13 48 9 77 77 NW 12 19 29.94 1014 10 16.0934 N/A
5:55 pm 17:55 Cloudy 55 13 48 9 77 77 NW 13 20 29.94 1014 10 16.0934 N/A
6:15 pm 18:15 Cloudy 55 13 48 9 77 77 NW 10 17 29.95 1014 10 16.0934 N/A
6:35 pm 18:35 Mostly Cloudy 55 13 48 9 77 77 NNW 8 13 29.95 1014 10 16.0934 N/A
6:55 pm 18:55 Cloudy 55 13 48 9 77 77 NW 7 11 29.95 1014 10 16.0934 N/A
7:15 pm 19:15 Cloudy 55 13 48 9 77 77 NNW 7 11 29.96 1015 10 16.0934 N/A
7:36 pm 19:36 Cloudy 55 13 48 9 77 77 NW 9 15 29.96 1015 10 16.0934 N/A
7:55 pm 19:55 Mostly Cloudy 55 13 48 9 77 77 NNW 6 9 29.96 1015 10 16.0934 N/A
8:15 pm 20:15 Partly Cloudy 54 12 48 9 82 82 NNW 7 11 29.97 1015 10 16.0934 N/A
8:35 pm 20:35 Sunny 52 11 46 8 82 82 NW 5 7 29.98 1015 10 16.0934 N/A
8:55 pm 20:55 Clear 52 11 46 8 82 82 WNW 3 6 29.99 1015 10 16.0934 N/A
9:15 pm 21:15 Clear 48 9 46 8 94 94 W 3 6 29.99 1016 10 16.0934 N/A
9:35 pm 21:35 Clear 46 8 46 8 100 100 W 3 6 30 1016 10 16.0934 N/A
9:55 pm 21:55 Clear 45 7 45 7 100 100 W 5 7 30.01 1016 10 16.0934 N/A
10:15 pm 22:15 Clear 45 7 45 7 100 100 W 3 6 30.01 1016 10 16.0934 N/A
10:35 pm 22:35 Clear 45 7 45 7 100 100 N N/A 30.02 1017 10 16.0934 N/A
10:55 pm 22:55 Clear 45 7 45 7 100 100 N N/A 30.03 1017 10 16.0934 N/A
11:15 pm 23:15 Clear 43 6 43 6 100 100 N N/A 30.03 1017 10 16.0934 N/A
11:35 pm 23:35 Clear 43 6 43 6 100 100 N N/A 30.03 1017 10 16.0934 N/A
11:55 pm 23:55 Clear 43 6 43 6 100 100 N N/A 30.03 1017 10 16.0934 N/A

Powered by AerisWeather